Location: Gombori
(14.9797°N, 2.9419°W)
Time: 00:23:38
(UTC+00:00)

Cosmos 1092 Rocket - Pass Details

Date: 29 July 2021
Orbit: 954 x 995 km, 83.0° (Epoch: 20 September)

Event Time Altitude Azimuth Distance (km) Brightness Sun altitude
Exits shadow 20:48:09 47° 45° (NE) 1,266 4.4 -28.4°
Drops below altitude 10° 20:52:50 10° 15° (NNE) 2,728 6.5 -29.3°
Sets 20:55:23 0° 11° (N) 3,683 7.3 -29.8°
